Time,TemperatureF,DewpointF,PressureIn,WindDirection,WindDirectionDegrees,WindSpeedMPH,WindSpeedGustMPH,Humidity,HourlyPrecipIn,Conditions,Clouds,dailyrainin,SoftwareType,DateUTC
2017-07-22 00:02:00,75.9,72.1,29.97,SE,135,2.3,2.3,88,0.00,RA,,0.00,WeatherDisplay:10.37,2017-07-22 04:02:00,
2017-07-22 00:07:00,75.7,71.9,29.97,ESE,112,0.0,0.0,88,0.00,RA,,0.00,WeatherDisplay:10.37,2017-07-22 04:07:00,
2017-07-22 00:09:00,75.7,71.9,29.97,SSE,158,1.7,0.0,88,0.00,RA,,0.00,WeatherDisplay:10.37,2017-07-22 04:09:00,
2017-07-22 00:14:00,75.7,71.9,29.97,SSE,158,1.2,1.2,88,0.00,CLR,,0.00,WeatherDisplay:10.37,2017-07-22 04:14:00,
2017-07-22 00:19:00,75.6,71.8,29.97,ESE,112,2.3,2.3,88,0.00,CLR,,0.00,WeatherDisplay:10.37,2017-07-22 04:19:00,
2017-07-22 00:24:00,75.4,71.9,29.97,ESE,112,2.7,2.7,89,0.00,CLR,,0.00,WeatherDisplay:10.37,2017-07-22 04:24:00,
2017-07-22 00:29:00,75.2,71.7,29.97,ESE,112,1.7,1.7,89,0.00,CLR,,0.00,WeatherDisplay:10.37,2017-07-22 04:29:00,
2017-07-22 00:34:00,75.0,71.5,29.97,SSE,158,2.3,2.3,89,0.00,CLR,,0.00,WeatherDisplay:10.37,2017-07-22 04:34:00,
2017-07-22 00:39:00,75.0,71.9,29.96,SE,135,1.2,1.2,90,0.00,CLR,,0.00,WeatherDisplay:10.37,2017-07-22 04:39:00,
2017-07-22 00:44:00,74.8,71.7,29.96,ESE,112,2.3,2.3,90,0.00,CLR,,0.00,WeatherDisplay:10.37,2017-07-22 04:44:00,
2017-07-22 00:49:00,74.8,71.7,29.96,ESE,112,0.0,0.0,90,0.00,CLR,,0.00,WeatherDisplay:10.37,2017-07-22 04:49:00,
2017-07-22 00:54:00,74.7,71.6,29.96,ESE,112,3.5,3.5,90,0.00,CLR,,0.00,WeatherDisplay:10.37,2017-07-22 04:54:00,
2017-07-22 00:59:00,74.5,71.4,29.96,ESE,112,2.3,2.3,90,0.00,CLR,,0.00,WeatherDisplay:10.37,2017-07-22 04:59:00,
2017-07-22 01:04:00,74.5,71.4,29.95,South,180,2.3,2.3,90,0.00,CLR,,0.00,WeatherDisplay:10.37,2017-07-22 05:04:00,
2017-07-22 01:09:00,74.3,71.2,29.95,ESE,112,2.3,2.3,90,0.00,CLR,,0.00,WeatherDisplay:10.37,2017-07-22 05:09:00,
2017-07-22 01:14:00,74.3,71.2,29.95,SSE,158,2.3,2.3,90,0.00,CLR,,0.00,WeatherDisplay:10.37,2017-07-22 05:14:00,
2017-07-22 01:19:00,74.3,71.5,29.95,SE,135,1.2,1.2,91,0.00,CLR,,0.00,WeatherDisplay:10.37,2017-07-22 05:19:00,
2017-07-22 01:24:00,74.3,71.5,29.95,ESE,112,3.5,3.5,91,0.00,CLR,,0.00,WeatherDisplay:10.37,2017-07-22 05:24:00,
2017-07-22 01:29:00,74.1,71.3,29.95,ESE,112,2.3,2.3,91,0.00,CLR,,0.00,WeatherDisplay:10.37,2017-07-22 05:29:00,
2017-07-22 01:34:00,73.9,71.1,29.95,ESE,112,2.7,2.7,91,0.00,CLR,,0.00,WeatherDisplay:10.37,2017-07-22 05:34:00,
2017-07-22 01:39:00,73.9,71.1,29.94,SE,135,3.5,3.5,91,0.00,CLR,,0.00,WeatherDisplay:10.37,2017-07-22 05:39:00,
2017-07-22 01:44:00,73.8,71.0,29.94,ESE,112,0.0,0.0,91,0.00,CLR,,0.00,WeatherDisplay:10.37,2017-07-22 05:44:00,
2017-07-22 01:45:00,73.8,71.0,29.94,ESE,112,2.2,2.2,91,0.00,CLR,,0.00,WeatherDisplay:10.37,2017-07-22 05:45:00,
2017-07-22 01:50:00,73.6,70.8,29.94,East,90,3.2,3.2,91,0.00,CLR,,0.00,WeatherDisplay:10.37,2017-07-22 05:50:00,
2017-07-22 01:55:00,73.4,70.6,29.94,SE,135,2.3,2.3,91,0.00,CLR,,0.00,WeatherDisplay:10.37,2017-07-22 05:55:00,
2017-07-22 02:00:00,73.2,70.4,29.94,East,90,0.0,0.0,91,0.00,CLR,,0.00,WeatherDisplay:10.37,2017-07-22 06:00:00,
2017-07-22 02:06:00,73.0,70.2,29.93,SSE,158,2.3,2.3,91,0.00,CLR,,0.00,WeatherDisplay:10.37,2017-07-22 06:06:00,
2017-07-22 02:11:00,72.9,70.1,29.93,South,180,1.7,1.7,91,0.00,CLR,,0.00,WeatherDisplay:10.37,2017-07-22 06:11:00,
2017-07-22 02:16:00,72.9,69.8,29.93,South,180,2.3,2.3,90,0.00,CLR,,0.00,WeatherDisplay:10.37,2017-07-22 06:16:00,
2017-07-22 02:21:00,72.9,69.8,29.93,ESE,112,0.0,0.0,90,0.00,CLR,,0.00,WeatherDisplay:10.37,2017-07-22 06:21:00,
2017-07-22 02:26:00,72.7,69.6,29.93,SSE,158,2.3,2.3,90,0.00,CLR,,0.00,WeatherDisplay:10.37,2017-07-22 06:26:00,
2017-07-22 02:31:00,72.7,69.6,29.92,SSW,202,2.3,2.3,90,0.00,CLR,,0.00,WeatherDisplay:10.37,2017-07-22 06:31:00,
2017-07-22 02:36:00,72.7,69.6,29.92,South,180,2.3,2.3,90,0.00,CLR,,0.00,WeatherDisplay:10.37,2017-07-22 06:36:00,
2017-07-22 02:41:00,72.7,69.6,29.92,SE,135,2.3,2.3,90,0.00,CLR,,0.00,WeatherDisplay:10.37,2017-07-22 06:41:00,
2017-07-22 02:46:00,72.7,69.6,29.92,SSW,202,2.7,2.7,90,0.00,CLR,,0.00,WeatherDisplay:10.37,2017-07-22 06:46:00,
2017-07-22 02:51:00,72.7,69.6,29.92,South,180,2.3,2.3,90,0.00,CLR,,0.00,WeatherDisplay:10.37,2017-07-22 06:51:00,
2017-07-22 02:56:00,72.7,69.6,29.91,SSE,158,2.3,2.3,90,0.00,CLR,,0.00,WeatherDisplay:10.37,2017-07-22 06:56:00,
2017-07-22 03:01:00,72.5,69.4,29.91,South,180,0.0,0.0,90,0.00,CLR,,0.00,WeatherDisplay:10.37,2017-07-22 07:01:00,
2017-07-22 03:06:00,72.5,69.4,29.91,ESE,112,3.7,3.7,90,0.00,CLR,,0.00,WeatherDisplay:10.37,2017-07-22 07:06:00,
2017-07-22 03:11:00,72.5,69.4,29.91,South,180,2.3,2.3,90,0.00,CLR,,0.00,WeatherDisplay:10.37,2017-07-22 07:11:00,
2017-07-22 03:16:00,72.5,69.4,29.91,SSE,158,0.0,0.0,90,0.00,CLR,,0.00,WeatherDisplay:10.37,2017-07-22 07:16:00,
2017-07-22 03:21:00,72.5,69.7,29.91,SE,135,2.3,2.3,91,0.00,CLR,,0.00,WeatherDisplay:10.37,2017-07-22 07:21:00,
2017-07-22 03:26:00,72.5,69.7,29.91,ESE,112,1.7,1.7,91,0.00,CLR,,0.00,WeatherDisplay:10.37,2017-07-22 07:26:00,
2017-07-22 03:27:00,72.5,69.7,29.91,SSE,158,1.2,0.0,91,0.00,CLR,,0.00,WeatherDisplay:10.37,2017-07-22 07:27:00,
2017-07-22 03:32:00,72.5,69.7,29.91,SSW,202,1.7,1.7,91,0.00,CLR,,0.00,WeatherDisplay:10.37,2017-07-22 07:32:00,
2017-07-22 03:37:00,72.5,69.7,29.91,SE,135,2.3,2.3,91,0.00,CLR,,0.00,WeatherDisplay:10.37,2017-07-22 07:37:00,
2017-07-22 03:42:00,72.5,70.0,29.90,SSE,158,1.7,1.7,92,0.00,CLR,,0.00,WeatherDisplay:10.37,2017-07-22 07:42:00,
2017-07-22 03:47:00,72.5,70.0,29.90,East,90,2.3,2.3,92,0.00,CLR,,0.00,WeatherDisplay:10.37,2017-07-22 07:47:00,
2017-07-22 03:52:00,72.5,70.0,29.90,ESE,112,2.3,2.3,92,0.00,CLR,,0.00,WeatherDisplay:10.37,2017-07-22 07:52:00,
2017-07-22 03:57:00,72.5,70.0,29.90,SSE,158,2.7,2.7,92,0.00,CLR,,0.00,WeatherDisplay:10.37,2017-07-22 07:57:00,
2017-07-22 04:02:00,72.5,70.0,29.90,SSE,158,2.3,2.3,92,0.00,CLR,,0.00,WeatherDisplay:10.37,2017-07-22 08:02:00,
2017-07-22 04:07:00,72.5,70.0,29.90,South,180,2.3,2.3,92,0.00,CLR,,0.00,WeatherDisplay:10.37,2017-07-22 08:07:00,
2017-07-22 04:12:00,72.5,70.0,29.90,SSW,202,2.2,2.2,92,0.00,CLR,,0.00,WeatherDisplay:10.37,2017-07-22 08:12:00,
2017-07-22 04:17:00,72.5,70.0,29.91,SE,135,4.6,4.6,92,0.00,CLR,,0.00,WeatherDisplay:10.37,2017-07-22 08:17:00,
2017-07-22 04:22:00,72.5,70.0,29.91,South,180,2.3,2.3,92,0.00,CLR,,0.00,WeatherDisplay:10.37,2017-07-22 08:22:00,
2017-07-22 04:27:00,72.5,70.0,29.90,SSE,158,3.2,3.2,92,0.00,CLR,,0.00,WeatherDisplay:10.37,2017-07-22 08:27:00,
2017-07-22 04:32:00,72.5,70.0,29.90,South,180,2.7,2.7,92,0.00,CLR,,0.00,WeatherDisplay:10.37,2017-07-22 08:32:00,
2017-07-22 04:37:00,72.5,70.0,29.90,SE,135,2.3,2.4,92,0.00,CLR,,0.00,WeatherDisplay:10.37,2017-07-22 08:37:00,
2017-07-22 04:42:00,72.5,70.4,29.90,SSE,158,2.3,2.3,93,0.00,CLR,,0.00,WeatherDisplay:10.37,2017-07-22 08:42:00,
2017-07-22 04:47:00,72.5,70.4,29.90,SSE,158,2.3,2.3,93,0.00,CLR,,0.00,WeatherDisplay:10.37,2017-07-22 08:47:00,
2017-07-22 04:52:00,72.5,70.4,29.90,SE,135,2.3,2.3,93,0.00,CLR,,0.00,WeatherDisplay:10.37,2017-07-22 08:52:00,
2017-07-22 04:57:00,72.5,70.4,29.90,SSE,158,2.3,2.3,93,0.00,CLR,,0.00,WeatherDisplay:10.37,2017-07-22 08:57:00,
2017-07-22 05:02:00,72.3,70.2,29.90,SSE,158,2.3,2.3,93,0.00,CLR,,0.00,WeatherDisplay:10.37,2017-07-22 09:02:00,
2017-07-22 05:07:00,72.3,70.2,29.90,SE,135,2.3,2.3,93,0.00,CLR,,0.00,WeatherDisplay:10.37,2017-07-22 09:07:00,
2017-07-22 05:12:00,72.3,70.2,29.90,SSE,158,2.3,2.3,93,0.00,CLR,,0.00,WeatherDisplay:10.37,2017-07-22 09:12:00,
2017-07-22 05:17:00,72.3,70.2,29.90,South,180,3.5,3.5,93,0.00,CLR,,0.00,WeatherDisplay:10.37,2017-07-22 09:17:00,
2017-07-22 05:22:00,72.3,70.2,29.90,SSE,158,3.2,3.2,93,0.00,CLR,,0.00,WeatherDisplay:10.37,2017-07-22 09:22:00,
2017-07-22 05:27:00,72.3,70.2,29.90,SSE,158,2.7,2.7,93,0.00,CLR,,0.00,WeatherDisplay:10.37,2017-07-22 09:27:00,
2017-07-22 05:32:00,72.3,70.2,29.90,SSE,158,3.5,3.5,93,0.00,CLR,,0.00,WeatherDisplay:10.37,2017-07-22 09:32:00,
2017-07-22 05:37:00,72.3,70.2,29.90,SSE,158,3.5,3.5,93,0.00,CLR,,0.00,WeatherDisplay:10.37,2017-07-22 09:37:00,
2017-07-22 05:42:00,72.3,70.2,29.89,SSE,158,2.7,2.7,93,0.00,CLR,,0.00,WeatherDisplay:10.37,2017-07-22 09:42:00,
2017-07-22 05:47:00,72.5,70.4,29.89,SSE,158,3.5,3.5,93,0.00,CLR,,0.00,WeatherDisplay:10.37,2017-07-22 09:47:00,
2017-07-22 05:52:00,72.5,70.4,29.88,South,180,3.2,3.2,93,0.00,CLR,,0.00,WeatherDisplay:10.37,2017-07-22 09:52:00,
2017-07-22 05:57:00,72.7,70.6,29.88,SSE,158,3.5,3.5,93,0.00,CLR,,0.00,WeatherDisplay:10.37,2017-07-22 09:57:00,
2017-07-22 06:02:00,72.7,70.6,29.88,SSE,158,2.3,2.4,93,0.00,CLR,,0.00,WeatherDisplay:10.37,2017-07-22 10:02:00,
2017-07-22 06:07:00,72.9,70.8,29.88,SSE,158,3.5,3.5,93,0.00,CLR,,0.00,WeatherDisplay:10.37,2017-07-22 10:07:00,
2017-07-22 06:12:00,72.9,70.8,29.88,ESE,112,3.5,3.5,93,0.00,CLR,,0.00,WeatherDisplay:10.37,2017-07-22 10:12:00,
2017-07-22 06:17:00,72.9,70.8,29.88,WSW,248,2.3,2.3,93,0.00,CLR,,0.00,WeatherDisplay:10.37,2017-07-22 10:17:00,
2017-07-22 06:22:00,73.0,70.9,29.88,SW,225,3.2,3.2,93,0.00,CLR,,0.00,WeatherDisplay:10.37,2017-07-22 10:22:00,
2017-07-22 06:27:00,73.0,70.9,29.88,South,180,3.5,3.5,93,0.00,CLR,,0.00,WeatherDisplay:10.37,2017-07-22 10:27:00,
2017-07-22 06:32:00,73.2,71.1,29.88,SW,225,3.5,3.5,93,0.00,CLR,,0.00,WeatherDisplay:10.37,2017-07-22 10:32:00,
2017-07-22 06:37:00,73.4,71.3,29.88,SSW,202,5.8,5.8,93,0.00,CLR,,0.00,WeatherDisplay:10.37,2017-07-22 10:37:00,
2017-07-22 06:42:00,73.6,71.4,29.89,South,180,3.5,3.5,93,0.00,CLR,,0.00,WeatherDisplay:10.37,2017-07-22 10:42:00,
2017-07-22 06:47:00,73.9,71.7,29.89,SW,225,4.6,4.6,93,0.00,CLR,,0.00,WeatherDisplay:10.37,2017-07-22 10:47:00,
2017-07-22 06:52:00,74.3,71.8,29.90,WSW,248,6.3,6.3,92,0.00,CLR,,0.00,WeatherDisplay:10.37,2017-07-22 10:52:00,
2017-07-22 06:57:00,74.7,72.2,29.90,SW,225,5.8,5.8,92,0.00,CLR,,0.00,WeatherDisplay:10.37,2017-07-22 10:57:00,
2017-07-22 07:02:00,75.0,72.2,29.90,West,270,9.2,9.2,91,0.00,CLR,,0.00,WeatherDisplay:10.37,2017-07-22 11:02:00,
2017-07-22 07:07:00,75.2,72.4,29.89,SW,225,6.9,6.9,91,0.00,CLR,,0.00,WeatherDisplay:10.37,2017-07-22 11:07:00,
2017-07-22 07:12:00,75.2,72.1,29.89,West,270,6.9,6.9,90,0.00,CLR,,0.00,WeatherDisplay:10.37,2017-07-22 11:12:00,
2017-07-22 07:17:00,75.4,72.3,29.89,WSW,248,8.1,8.1,90,0.00,CLR,,0.00,WeatherDisplay:10.37,2017-07-22 11:17:00,
2017-07-22 07:22:00,75.6,72.5,29.89,West,270,6.9,6.9,90,0.00,CLR,,0.00,WeatherDisplay:10.37,2017-07-22 11:22:00,
2017-07-22 07:27:00,75.7,72.6,29.90,West,270,10.4,10.4,90,0.00,CLR,,0.00,WeatherDisplay:10.37,2017-07-22 11:27:00,
2017-07-22 07:32:00,76.3,72.5,29.90,WNW,292,10.4,10.4,88,0.00,CLR,,0.00,WeatherDisplay:10.37,2017-07-22 11:32:00,
2017-07-22 07:37:00,76.3,72.5,29.90,West,270,9.2,9.2,88,0.00,CLR,,0.00,WeatherDisplay:10.37,2017-07-22 11:37:00,
2017-07-22 07:42:00,76.5,72.7,29.90,NNW,338,9.2,9.2,88,0.00,CLR,,0.00,WeatherDisplay:10.37,2017-07-22 11:42:00,
2017-07-22 07:47:00,76.5,72.7,29.90,WNW,292,7.3,7.3,88,0.00,CLR,,0.00,WeatherDisplay:10.37,2017-07-22 11:47:00,
2017-07-22 07:52:00,76.5,72.7,29.91,NW,315,8.1,8.1,88,0.00,CLR,,0.00,WeatherDisplay:10.37,2017-07-22 11:52:00,
2017-07-22 07:57:00,76.5,72.7,29.91,West,270,5.8,5.8,88,0.00,CLR,,0.00,WeatherDisplay:10.37,2017-07-22 11:57:00,
2017-07-22 08:02:00,76.5,72.7,29.91,WNW,292,5.8,5.8,88,0.00,CLR,,0.00,WeatherDisplay:10.37,2017-07-22 12:02:00,
2017-07-22 08:03:00,76.5,72.7,29.91,WNW,292,5.8,5.8,88,0.00,CLR,,0.00,WeatherDisplay:10.37,2017-07-22 12:03:00,
2017-07-22 08:08:00,76.6,72.4,29.91,NW,315,4.6,4.6,87,0.00,CLR,,0.00,WeatherDisplay:10.37,2017-07-22 12:08:00,
2017-07-22 08:13:00,76.6,72.4,29.91,West,270,4.6,4.6,87,0.00,CLR,,0.00,WeatherDisplay:10.37,2017-07-22 12:13:00,
2017-07-22 08:18:00,77.0,72.5,29.90,West,270,4.6,4.6,86,0.00,CLR,,0.00,WeatherDisplay:10.37,2017-07-22 12:18:00,
2017-07-22 08:23:00,77.2,72.7,29.90,SW,225,2.7,2.7,86,0.00,CLR,,0.00,WeatherDisplay:10.37,2017-07-22 12:23:00,
2017-07-22 08:28:00,77.5,73.0,29.91,NE,45,1.2,1.2,86,0.00,CLR,,0.00,WeatherDisplay:10.37,2017-07-22 12:28:00,
2017-07-22 08:33:00,78.1,72.9,29.91,SSW,202,1.2,1.2,84,0.00,CLR,,0.00,WeatherDisplay:10.37,2017-07-22 12:33:00,
2017-07-22 08:38:00,78.6,73.0,29.91,SSW,202,3.7,3.7,83,0.00,CLR,,0.00,WeatherDisplay:10.37,2017-07-22 12:38:00,
2017-07-22 08:43:00,79.0,72.7,29.90,SW,225,2.3,2.3,81,0.00,CLR,,0.00,WeatherDisplay:10.37,2017-07-22 12:43:00,
2017-07-22 08:48:00,79.3,72.6,29.90,WSW,248,3.2,3.2,80,0.00,CLR,,0.00,WeatherDisplay:10.37,2017-07-22 12:48:00,
2017-07-22 08:53:00,79.5,72.8,29.90,South,180,2.3,2.3,80,0.00,CLR,,0.00,WeatherDisplay:10.37,2017-07-22 12:53:00,
2017-07-22 08:58:00,79.9,72.8,29.90,West,270,3.7,3.7,79,0.00,CLR,,0.00,WeatherDisplay:10.37,2017-07-22 12:58:00,
2017-07-22 09:03:00,79.7,73.0,29.90,South,180,3.5,3.5,80,0.00,CLR,,0.00,WeatherDisplay:10.37,2017-07-22 13:03:00,
2017-07-22 09:08:00,79.7,73.0,29.90,SSE,158,2.3,2.3,80,0.00,CLR,,0.00,WeatherDisplay:10.37,2017-07-22 13:08:00,